| time (UTC) | temp F | wind direction | speed MPH | gust MPH | rain 1hr in | rain 24hr in | rain mn in | humidity % | barometer mb |
| 20260903144457 | 85 | 30 | 4.0 | 12.0 | 0.00 | 0.00 | 0.00 | 44 | 1018.6 |
| 20260903143500 | 85 | 355 | 6.0 | 12.0 | 0.00 | 0.00 | 0.00 | 42 | 1018.7 |
| 20260903143248 | 86 | 73 | 7.0 | 13.0 | 0.00 | 0.00 | 0.00 | 42 | 1018.6 |
| 20260903141456 | 86 | 351 | 5.0 | 11.0 | 0.00 | 0.00 | 0.00 | 43 | 1018.5 |
| 20260903140458 | 85 | 18 | 5.0 | 14.0 | 0.00 | 0.00 | 0.00 | 45 | 1018.3 |
| 20260903140324 | 86 | 18 | 7.0 | 13.0 | 0.00 | 0.00 | 0.00 | 45 | 1018.6 |
| 20260903134458 | 86 | 66 | 5.0 | 14.0 | 0.00 | 0.00 | 0.00 | 45 | 1018.7 |
| 20260903133454 | 86 | 75 | 7.0 | 15.0 | 0.00 | 0.00 | 0.00 | 46 | 1018.8 |
| 20260903132455 | 86 | 331 | 7.0 | 13.0 | 0.00 | 0.00 | 0.00 | 45 | 1018.8 |
| 20260903131458 | 87 | 59 | 6.0 | 11.0 | 0.00 | 0.00 | 0.00 | 44 | 1018.6 |
| 20260903130453 | 87 | 350 | 5.0 | 11.0 | 0.00 | 0.00 | 0.00 | 44 | 1018.7 |
| 20260903130305 | 87 | 0 | 6.0 | 13.0 | 0.00 | 0.00 | 0.00 | 45 | 1018.8 |
| 20260903124458 | 87 | 80 | 8.0 | 13.0 | 0.00 | 0.00 | 0.00 | 44 | 1018.7 |
| 20260903123453 | 87 | 1 | 5.0 | 11.0 | 0.00 | 0.00 | 0.00 | 44 | 1018.7 |
| 20260903122454 | 87 | 6 | 5.0 | 11.0 | 0.00 | 0.00 | 0.00 | 46 | 1018.9 |
| 20260903122213 | 87 | 58 | 8.0 | 14.0 | 0.00 | 0.00 | 0.00 | 43 | 1018.9 |
| 20260903121217 | 86 | 8 | 7.0 | 19.0 | 0.00 | 0.00 | 0.00 | 45 | 1018.8 |
| 20260903115453 | 86 | 1 | 9.0 | 13.0 | 0.00 | 0.00 | 0.00 | 45 | 1018.8 |
| 20260903115236 | 86 | 338 | 7.0 | 15.0 | 0.00 | 0.00 | 0.00 | 45 | 1018.9 |
| 20260903113451 | 87 | 354 | 5.0 | 16.0 | 0.00 | 0.00 | 0.00 | 45 | 1019.0 |
| 20260903112452 | 87 | 0 | 6.0 | 12.0 | 0.00 | 0.00 | 0.00 | 45 | 1018.9 |
| 20260903111453 | 86 | 0 | 7.0 | 16.0 | 0.00 | 0.00 | 0.00 | 47 | 1019.1 |
| 20260903110451 | 87 | 44 | 8.0 | 12.0 | 0.00 | 0.00 | 0.00 | 47 | 1019.1 |
| 20260903110256 | 87 | 24 | 7.0 | 15.0 | 0.00 | 0.00 | 0.00 | 48 | 1019.0 |
| 20260903104452 | 86 | 3 | 7.0 | 14.0 | 0.00 | 0.00 | 0.00 | 46 | 1019.3 |
| 20260903103451 | 86 | 32 | 6.0 | 14.0 | 0.00 | 0.00 | 0.00 | 48 | 1019.2 |
| 20260903102453 | 85 | 354 | 7.0 | 13.0 | 0.00 | 0.00 | 0.00 | 49 | 1019.4 |
| 20260903101456 | 86 | 305 | 6.0 | 12.0 | 0.00 | 0.00 | 0.00 | 50 | 1019.5 |
| 20260903100452 | 85 | 0 | 8.0 | 16.0 | 0.00 | 0.00 | 0.00 | 51 | 1019.6 |
| 20260903095453 | 86 | 317 | 6.0 | 13.0 | 0.00 | 0.00 | 0.00 | 53 | 1019.6 |
| 20260903094452 | 85 | 333 | 5.0 | 13.0 | 0.00 | 0.00 | 0.00 | 54 | 1019.7 |
| 20260903093453 | 85 | 321 | 6.0 | 12.0 | 0.00 | 0.00 | 0.00 | 56 | 1019.8 |
| 20260903092448 | 85 | 11 | 7.0 | 11.0 | 0.00 | 0.00 | 0.00 | 54 | 1019.7 |
| 20260903091454 | 84 | 303 | 4.0 | 14.0 | 0.00 | 0.00 | 0.00 | 55 | 1019.7 |
| 20260903090447 | 84 | 309 | 6.0 | 11.0 | 0.00 | 0.00 | 0.00 | 55 | 1019.7 |
| 20260903085449 | 83 | 340 | 5.0 | 11.0 | 0.00 | 0.00 | 0.00 | 57 | 1019.7 |
| 20260903084452 | 83 | 321 | 6.0 | 10.0 | 0.00 | 0.00 | 0.00 | 60 | 1019.6 |
| 20260903083451 | 82 | 350 | 4.0 | 11.0 | 0.00 | 0.00 | 0.00 | 60 | 1019.5 |
| 20260903082449 | 81 | 338 | 5.0 | 10.0 | 0.00 | 0.00 | 0.00 | 61 | 1019.5 |
| 20260903081449 | 80 | 336 | 4.0 | 9.0 | 0.00 | 0.00 | 0.00 | 64 | 1019.5 |
| 20260903080447 | 80 | 0 | 4.0 | 14.0 | 0.00 | 0.00 | 0.00 | 66 | 1019.5 |
| 20260903075447 | 79 | 286 | 5.0 | 10.0 | 0.00 | 0.00 | 0.00 | 66 | 1019.4 |
| 20260903074448 | 79 | 348 | 5.0 | 10.0 | 0.00 | 0.00 | 0.00 | 68 | 1019.4 |
| 20260903073447 | 78 | 316 | 4.0 | 10.0 | 0.00 | 0.00 | 0.00 | 68 | 1019.3 |
| 20260903073246 | 78 | 326 | 3.0 | 12.0 | 0.00 | 0.00 | 0.00 | 69 | 1019.2 |
| 20260903072229 | 77 | 305 | 4.0 | 9.0 | 0.00 | 0.00 | 0.00 | 69 | 1019.2 |
| 20260903070445 | 76 | 351 | 6.0 | 9.0 | 0.00 | 0.00 | 0.00 | 68 | 1019.2 |
| 20260903070305 | 76 | 326 | 4.0 | 9.0 | 0.00 | 0.00 | 0.00 | 69 | 1019.2 |
| 20260903065053 | 74 | 307 | 4.0 | 7.0 | 0.00 | 0.00 | 0.00 | 73 | 1019.1 |
| 20260903064624 | 75 | 306 | 4.0 | 10.0 | 0.00 | 0.00 | 0.00 | 70 | 1019.2 |
| 20260903062450 | 72 | 293 | 2.0 | 4.0 | 0.00 | 0.00 | 0.00 | 75 | 1019.2 |
| 20260903061445 | 72 | 281 | 1.0 | 4.0 | 0.00 | 0.00 | 0.00 | 75 | 1019.1 |
| 20260903061216 | 71 | 289 | 2.0 | 4.0 | 0.00 | 0.00 | 0.00 | 75 | 1019.1 |
| 20260903055446 | 71 | 281 | 3.0 | 5.0 | 0.00 | 0.00 | 0.00 | 76 | 1019.0 |
| 20260903054447 | 70 | 300 | 3.0 | 4.0 | 0.00 | 0.00 | 0.00 | 76 | 1018.9 |
| 20260903053446 | 70 | 276 | 2.0 | 4.0 | 0.00 | 0.00 | 0.00 | 76 | 1018.9 |
| 20260903052444 | 70 | 290 | 2.0 | 4.0 | 0.00 | 0.00 | 0.00 | 76 | 1018.8 |
| 20260903051450 | 70 | 282 | 3.0 | 5.0 | 0.00 | 0.00 | 0.00 | 76 | 1018.6 |
| 20260903050443 | 70 | 285 | 3.0 | 5.0 | 0.00 | 0.00 | 0.00 | 75 | 1018.5 |
| 20260903045445 | 70 | 216 | 3.0 | 4.0 | 0.00 | 0.00 | 0.00 | 76 | 1018.3 |
| 20260903044448 | 70 | 243 | 2.0 | 3.0 | 0.00 | 0.00 | 0.00 | 76 | 1018.3 |
| 20260903043445 | 70 | 299 | 2.0 | 3.0 | 0.00 | 0.00 | 0.00 | 76 | 1018.3 |
| 20260903042446 | 70 | 310 | 2.0 | 3.0 | 0.00 | 0.00 | 0.00 | 75 | 1018.3 |
| 20260903041445 | 71 | 299 | 2.0 | 4.0 | 0.00 | 0.00 | 0.00 | 75 | 1018.2 |
| 20260903040443 | 71 | 282 | 4.0 | 5.0 | 0.00 | 0.00 | 0.00 | 75 | 1018.1 |
| 20260903035444 | 71 | 296 | 4.0 | 9.0 | 0.00 | 0.00 | 0.00 | 75 | 1018.2 |
| 20260903034443 | 71 | 286 | 5.0 | 6.0 | 0.00 | 0.00 | 0.00 | 74 | 1018.1 |
| 20260903033443 | 71 | 279 | 2.0 | 5.0 | 0.00 | 0.00 | 0.00 | 74 | 1018.2 |
| 20260903032443 | 71 | 281 | 3.0 | 5.0 | 0.00 | 0.00 | 0.00 | 74 | 1018.2 |
| 20260903031441 | 71 | 282 | 3.0 | 4.0 | 0.00 | 0.00 | 0.00 | 74 | 1018.2 |
| 20260903030924 | 71 | 281 | 3.0 | 4.0 | 0.00 | 0.00 | 0.00 | 74 | 1018.3 |
| 20260903030607 | 71 | 278 | 3.0 | 4.0 | 0.00 | 0.00 | 0.00 | 74 | 1018.3 |
| 20260903024439 | 71 | 275 | 3.0 | 4.0 | 0.00 | 0.00 | 0.00 | 74 | 1018.3 |
| 20260903023448 | 72 | 269 | 3.0 | 4.0 | 0.00 | 0.00 | 0.00 | 73 | 1018.3 |
| 20260903022440 | 72 | 281 | 2.0 | 3.0 | 0.00 | 0.00 | 0.00 | 73 | 1018.2 |
| 20260903021441 | 72 | 276 | 2.0 | 5.0 | 0.00 | 0.00 | 0.00 | 73 | 1018.3 |
| 20260903021150 | 71 | 278 | 2.0 | 4.0 | 0.00 | 0.00 | 0.00 | 74 | 1018.2 |
| 20260903015442 | 71 | 288 | 3.0 | 4.0 | 0.00 | 0.00 | 0.00 | 74 | 1018.2 |
| 20260903014441 | 71 | 285 | 3.0 | 4.0 | 0.00 | 0.00 | 0.00 | 74 | 1018.3 |
| 20260903013439 | 71 | 292 | 3.0 | 5.0 | 0.00 | 0.00 | 0.00 | 74 | 1018.3 |
| 20260903012438 | 71 | 288 | 4.0 | 5.0 | 0.00 | 0.00 | 0.00 | 74 | 1018.3 |
| 20260903011441 | 71 | 279 | 3.0 | 4.0 | 0.00 | 0.00 | 0.00 | 74 | 1018.2 |
| 20260903010437 | 71 | 283 | 3.0 | 6.0 | 0.00 | 0.00 | 0.00 | 74 | 1018.2 |
| 20260903005439 | 72 | 268 | 3.0 | 6.0 | 0.00 | 0.00 | 0.00 | 73 | 1018.1 |
| 20260903004439 | 72 | 271 | 3.0 | 5.0 | 0.00 | 0.00 | 0.00 | 73 | 1018.2 |
| 20260903004156 | 72 | 292 | 2.0 | 6.0 | 0.00 | 0.00 | 0.00 | 73 | 1018.1 |
| 20260903002435 | 72 | 224 | 2.0 | 4.0 | 0.00 | 0.00 | 0.00 | 73 | 1018.0 |
| 20260903001437 | 72 | 282 | 2.0 | 5.0 | 0.00 | 0.00 | 0.00 | 72 | 1018.1 |
| 20260903000439 | 72 | 266 | 4.0 | 5.0 | 0.00 | 0.00 | 0.00 | 72 | 1018.1 |
| 20260902235435 | 72 | 259 | 2.0 | 4.0 | 0.00 | 0.00 | 0.00 | 73 | 1018.1 |
| 20260902235233 | 72 | 240 | 2.0 | 4.0 | 0.00 | 0.00 | 0.00 | 72 | 1018.1 |
| 20260902233436 | 73 | 275 | 2.0 | 5.0 | 0.00 | 0.00 | 0.00 | 71 | 1018.2 |
| 20260902232436 | 73 | 283 | 2.0 | 4.0 | 0.00 | 0.00 | 0.00 | 71 | 1018.3 |
| 20260902231437 | 73 | 283 | 1.0 | 3.0 | 0.00 | 0.00 | 0.00 | 70 | 1018.3 |
| 20260902230435 | 73 | 281 | 3.0 | 5.0 | 0.00 | 0.00 | 0.00 | 70 | 1018.3 |
| 20260902230314 | 74 | 289 | 3.0 | 4.0 | 0.00 | 0.00 | 0.00 | 70 | 1018.4 |
| 20260902224436 | 74 | 250 | 1.0 | 3.0 | 0.00 | 0.00 | 0.00 | 70 | 1018.3 |
| 20260902223434 | 74 | 295 | 1.0 | 3.0 | 0.00 | 0.00 | 0.00 | 69 | 1018.4 |
| 20260902222436 | 74 | 279 | 1.0 | 3.0 | 0.00 | 0.00 | 0.00 | 69 | 1018.5 |
| 20260902221436 | 75 | 338 | 0.0 | 2.0 | 0.00 | 0.00 | 0.00 | 68 | 1018.5 |
| 20260902220434 | 74 | 330 | 2.0 | 4.0 | 0.00 | 0.00 | 0.00 | 69 | 1018.5 |
| 20260902220314 | 74 | 323 | 2.0 | 4.0 | 0.00 | 0.00 | 0.00 | 69 | 1018.3 |
| 20260902214434 | 74 | 283 | 3.0 | 4.0 | 0.00 | 0.00 | 0.00 | 69 | 1018.4 |
| 20260902213431 | 74 | 272 | 3.0 | 5.0 | 0.00 | 0.00 | 0.00 | 69 | 1018.3 |
| 20260902212431 | 74 | 292 | 4.0 | 5.0 | 0.00 | 0.00 | 0.00 | 69 | 1018.2 |
| 20260902212207 | 74 | 281 | 2.0 | 4.0 | 0.00 | 0.00 | 0.00 | 69 | 1018.2 |
| 20260902211205 | 74 | 289 | 3.0 | 4.0 | 0.00 | 0.00 | 0.00 | 69 | 1018.2 |
| 20260902210311 | 74 | 295 | 2.0 | 4.0 | 0.00 | 0.00 | 0.00 | 69 | 1018.1 |
| 20260902204434 | 75 | 279 | 2.0 | 5.0 | 0.00 | 0.00 | 0.00 | 68 | 1018.1 |
| 20260902203435 | 75 | 272 | 2.0 | 3.0 | 0.00 | 0.00 | 0.00 | 68 | 1018.0 |
| 20260902202434 | 75 | 272 | 2.0 | 3.0 | 0.00 | 0.00 | 0.00 | 69 | 1018.0 |
| 20260902201431 | 75 | 281 | 2.0 | 3.0 | 0.00 | 0.00 | 0.00 | 69 | 1018.0 |
| 20260902200431 | 75 | 281 | 2.0 | 4.0 | 0.00 | 0.00 | 0.00 | 68 | 1018.0 |
| 20260902195433 | 75 | 300 | 2.0 | 2.0 | 0.00 | 0.00 | 0.00 | 69 | 1018.2 |
| 20260902194433 | 75 | 10 | 0.0 | 2.0 | 0.00 | 0.00 | 0.00 | 69 | 1018.2 |
| 20260902193428 | 75 | 10 | 1.0 | 2.0 | 0.00 | 0.00 | 0.00 | 69 | 1018.1 |
| 20260902192430 | 76 | 10 | 1.0 | 2.0 | 0.00 | 0.00 | 0.00 | 69 | 1018.2 |
| 20260902191430 | 76 | 10 | 0.0 | 2.0 | 0.00 | 0.00 | 0.00 | 69 | 1018.2 |
| 20260902191157 | 77 | 10 | 0.0 | 2.0 | 0.00 | 0.00 | 0.00 | 68 | 1018.3 |
| 20260902185430 | 77 | 10 | 0.0 | 1.0 | 0.00 | 0.00 | 0.00 | 69 | 1018.2 |
| 20260902185135 | 77 | 10 | 0.0 | 2.0 | 0.00 | 0.00 | 0.00 | 69 | 1018.1 |
| 20260902183427 | 77 | 10 | 2.0 | 4.0 | 0.00 | 0.00 | 0.00 | 68 | 1018.1 |
| 20260902182832 | 78 | 59 | 2.0 | 2.0 | 0.00 | 0.00 | 0.00 | 67 | 1017.8 |
| 20260902182532 | 77 | 27 | 2.0 | 3.0 | 0.00 | 0.00 | 0.00 | 67 | 1017.9 |
| 20260902180433 | 78 | 59 | 1.0 | 2.0 | 0.00 | 0.00 | 0.00 | 67 | 1017.7 |
| 20260902175429 | 78 | 59 | 2.0 | 3.0 | 0.00 | 0.00 | 0.00 | 66 | 1017.7 |
| 20260902174428 | 79 | 59 | 2.0 | 3.0 | 0.00 | 0.00 | 0.00 | 65 | 1017.6 |
| 20260902174052 | 79 | 75 | 2.0 | 4.0 | 0.00 | 0.00 | 0.00 | 62 | 1017.4 |
| 20260902173954 | 80 | 69 | 2.0 | 5.0 | 0.00 | 0.00 | 0.00 | 60 | 1017.4 |
| 20260902173943 | 79 | 59 | 2.0 | 5.0 | 0.00 | 0.00 | 0.00 | 62 | 1017.2 |
| 20260902173606 | 79 | 59 | 1.0 | 3.0 | 0.00 | 0.00 | 0.00 | 63 | 1017.5 |
| 20260902165428 | 80 | 87 | 3.0 | 5.0 | 0.00 | 0.00 | 0.00 | 59 | 1017.4 |
| 20260902164845 | 81 | 51 | 3.0 | 6.0 | 0.00 | 0.00 | 0.00 | 57 | 1017.7 |
| 20260902164543 | 80 | 80 | 3.0 | 5.0 | 0.00 | 0.00 | 0.00 | 58 | 1017.6 |
| 20260902163200 | 81 | 25 | 4.0 | 6.0 | 0.00 | 0.00 | 0.00 | 57 | 1017.7 |
| 20260902161428 | 81 | 49 | 3.0 | 5.0 | 0.00 | 0.00 | 0.00 | 56 | 1017.8 |
| 20260902161219 | 82 | 7 | 2.0 | 5.0 | 0.00 | 0.00 | 0.00 | 56 | 1017.7 |
| 20260902155423 | 82 | 90 | 3.0 | 7.0 | 0.00 | 0.00 | 0.00 | 56 | 1017.7 |
| 20260902154424 | 83 | 18 | 4.0 | 9.0 | 0.00 | 0.00 | 0.00 | 55 | 1017.6 |
| 20260902153426 | 82 | 58 | 4.0 | 7.0 | 0.00 | 0.00 | 0.00 | 54 | 1017.5 |
| 20260902152430 | 82 | 35 | 4.0 | 10.0 | 0.00 | 0.00 | 0.00 | 54 | 1017.3 |
| 20260902152218 | 82 | 51 | 7.0 | 12.0 | 0.00 | 0.00 | 0.00 | 53 | 1017.3 |
| 20260902150427 | 83 | 353 | 6.0 | 12.0 | 0.00 | 0.00 | 0.00 | 54 | 1017.2 |